TimeEDT,TemperatureF,Dew PointF,Humidity,Sea Level PressureIn,VisibilityMPH,Wind Direction,Wind SpeedMPH,Gust SpeedMPH,PrecipitationIn,Events,Conditions,WindDirDegrees,DateUTC
12:35 AM,52.0,38.8,61,29.84,10.0,NW,3.5,-,N/A,,Scattered Clouds,310,2013-05-17 04:35:00
12:55 AM,50.4,39.0,65,29.85,10.0,WNW,3.5,-,N/A,,Mostly Cloudy,290,2013-05-17 04:55:00
1:15 AM,49.8,38.8,66,29.85,10.0,WNW,3.5,-,N/A,,Scattered Clouds,300,2013-05-17 05:15:00
1:35 AM,49.6,39.2,67,29.86,10.0,NNW,4.6,-,N/A,,Scattered Clouds,330,2013-05-17 05:35:00
1:55 AM,50.9,39.4,65,29.87,10.0,WNW,6.9,-,N/A,,Mostly Cloudy,300,2013-05-17 05:55:00
2:15 AM,51.3,38.5,62,29.87,10.0,NW,8.1,-,N/A,,Overcast,310,2013-05-17 06:15:00
2:35 AM,51.1,37.9,61,29.87,10.0,WNW,11.5,17.3,N/A,,Overcast,290,2013-05-17 06:35:00
2:55 AM,50.5,37.0,60,29.88,10.0,WNW,9.2,17.3,N/A,,Mostly Cloudy,300,2013-05-17 06:55:00
3:15 AM,49.6,36.7,61,29.88,10.0,WNW,6.9,17.3,N/A,,Scattered Clouds,300,2013-05-17 07:15:00
3:35 AM,49.3,36.0,60,29.89,10.0,NNW,10.4,17.3,N/A,,Clear,330,2013-05-17 07:35:00
3:55 AM,49.3,36.1,61,29.91,10.0,NW,8.1,17.3,N/A,,Mostly Cloudy,310,2013-05-17 07:55:00
4:15 AM,49.3,36.5,61,29.91,10.0,Calm,Calm,-,N/A,,Overcast,0,2013-05-17 08:15:00
4:35 AM,49.3,36.5,61,29.92,10.0,WNW,4.6,-,N/A,,Overcast,300,2013-05-17 08:35:00
4:55 AM,49.1,36.7,62,29.92,10.0,Calm,Calm,-,N/A,,Overcast,0,2013-05-17 08:55:00
5:15 AM,48.7,36.7,63,29.93,10.0,West,4.6,-,N/A,,Overcast,260,2013-05-17 09:15:00
5:35 AM,48.2,36.9,65,29.94,10.0,WNW,4.6,-,N/A,,Mostly Cloudy,290,2013-05-17 09:35:00
5:55 AM,48.4,36.9,64,29.94,10.0,NNW,5.8,-,N/A,,Overcast,330,2013-05-17 09:55:00
6:15 AM,48.6,37.2,65,29.95,10.0,WNW,5.8,-,N/A,,Overcast,300,2013-05-17 10:15:00
6:35 AM,49.5,37.9,65,29.97,10.0,WNW,5.8,-,N/A,,Overcast,300,2013-05-17 10:35:00
6:55 AM,49.5,38.3,65,29.99,10.0,West,6.9,-,N/A,,Overcast,280,2013-05-17 10:55:00
7:15 AM,49.3,39.6,69,29.99,10.0,West,10.4,-,N/A,,Overcast,280,2013-05-17 11:15:00
7:35 AM,49.6,40.1,70,30.00,7.0,NW,9.2,-,N/A,,Overcast,310,2013-05-17 11:35:00
7:55 AM,49.5,40.5,71,30.01,10.0,NW,9.2,-,N/A,,Overcast,310,2013-05-17 11:55:00
8:15 AM,48.2,41.0,76,30.02,10.0,WNW,5.8,-,N/A,,Overcast,290,2013-05-17 12:15:00
8:35 AM,48.2,41.2,77,30.03,10.0,NW,4.6,-,N/A,,Overcast,320,2013-05-17 12:35:00
8:55 AM,48.6,40.6,74,30.04,10.0,Calm,Calm,-,N/A,,Overcast,0,2013-05-17 12:55:00
9:15 AM,49.3,40.6,72,30.04,10.0,NW,4.6,-,N/A,,Overcast,310,2013-05-17 13:15:00
9:35 AM,50.4,41.7,72,30.04,10.0,WNW,6.9,-,N/A,,Overcast,290,2013-05-17 13:35:00
9:55 AM,52.0,41.9,69,30.04,10.0,WNW,9.2,-,N/A,,Overcast,290,2013-05-17 13:55:00
10:15 AM,52.3,40.5,64,30.05,10.0,NW,12.7,20.7,N/A,,Overcast,310,2013-05-17 14:15:00
10:35 AM,54.1,41.0,61,30.05,10.0,NW,11.5,21.9,N/A,,Overcast,320,2013-05-17 14:35:00
10:55 AM,54.7,40.1,58,30.06,10.0,NNW,11.5,19.6,N/A,,Overcast,330,2013-05-17 14:55:00
11:15 AM,55.8,39.2,54,30.06,10.0,NNW,13.8,21.9,N/A,,Overcast,340,2013-05-17 15:15:00
11:35 AM,55.9,39.2,53,30.07,10.0,NW,10.4,17.3,N/A,,Overcast,320,2013-05-17 15:35:00
11:55 AM,57.0,38.8,51,30.07,10.0,NNW,12.7,17.3,N/A,,Overcast,340,2013-05-17 15:55:00
12:15 PM,57.7,38.1,48,30.07,10.0,NW,10.4,17.3,N/A,,Overcast,320,2013-05-17 16:15:00
12:35 PM,59.2,37.2,44,30.06,10.0,NNW,9.2,20.7,N/A,,Overcast,330,2013-05-17 16:35:00
12:55 PM,59.9,37.6,44,30.06,10.0,NNW,8.1,-,N/A,,Scattered Clouds,330,2013-05-17 16:55:00
1:15 PM,60.8,35.2,38,30.06,10.0,WNW,9.2,23.0,N/A,,Scattered Clouds,300,2013-05-17 17:15:00
1:35 PM,61.9,34.5,36,30.06,10.0,WNW,15.0,21.9,N/A,,Clear,300,2013-05-17 17:35:00
1:55 PM,62.2,33.4,34,30.06,10.0,NW,12.7,24.2,N/A,,Clear,320,2013-05-17 17:55:00
2:15 PM,63.1,33.3,33,30.07,10.0,NW,13.8,21.9,N/A,,Scattered Clouds,320,2013-05-17 18:15:00
2:35 PM,62.1,33.3,34,30.07,10.0,NW,9.2,18.4,N/A,,Mostly Cloudy,320,2013-05-17 18:35:00
2:55 PM,62.6,33.3,33,30.07,10.0,NNW,6.9,21.9,N/A,,Mostly Cloudy,340,2013-05-17 18:55:00
3:15 PM,63.1,33.8,33,30.07,10.0,NNW,8.1,-,N/A,,Mostly Cloudy,330,2013-05-17 19:15:00
3:35 PM,63.7,33.4,32,30.07,10.0,NNW,13.8,18.4,N/A,,Mostly Cloudy,330,2013-05-17 19:35:00
3:55 PM,65.7,33.3,30,30.07,10.0,West,12.7,18.4,N/A,,Mostly Cloudy,280,2013-05-17 19:55:00
4:15 PM,65.3,31.8,29,30.07,10.0,West,15.0,20.7,N/A,,Mostly Cloudy,280,2013-05-17 20:15:00
4:35 PM,64.6,32.5,30,30.07,10.0,North,6.9,17.3,N/A,,Mostly Cloudy,350,2013-05-17 20:35:00
4:55 PM,62.6,33.1,33,30.09,10.0,NNW,6.9,-,N/A,,Overcast,340,2013-05-17 20:55:00
5:15 PM,61.9,32.9,34,30.09,10.0,NW,8.1,17.3,N/A,,Mostly Cloudy,320,2013-05-17 21:15:00
5:35 PM,62.8,31.1,30,30.10,10.0,NW,13.8,21.9,N/A,,Scattered Clouds,310,2013-05-17 21:35:00
5:55 PM,62.8,31.8,31,30.10,10.0,NW,12.7,19.6,N/A,,Mostly Cloudy,310,2013-05-17 21:55:00
6:15 PM,62.1,31.5,32,30.11,10.0,NW,9.2,18.4,N/A,,Mostly Cloudy,310,2013-05-17 22:15:00
6:35 PM,62.8,32.4,32,30.12,10.0,NW,6.9,-,N/A,,Scattered Clouds,320,2013-05-17 22:35:00
6:55 PM,60.8,32.2,34,30.13,10.0,NW,5.8,-,N/A,,Scattered Clouds,320,2013-05-17 22:55:00
7:15 PM,60.3,32.9,36,30.13,10.0,NW,5.8,-,N/A,,Mostly Cloudy,320,2013-05-17 23:15:00
7:35 PM,60.1,34.2,38,30.14,10.0,Calm,Calm,-,N/A,,Mostly Cloudy,0,2013-05-17 23:35:00
7:55 PM,57.9,38.7,49,30.14,10.0,Calm,Calm,-,N/A,,Mostly Cloudy,0,2013-05-17 23:55:00
8:35 PM,53.6,42.6,66,30.16,10.0,Calm,Calm,-,N/A,,Overcast,0,2013-05-18 00:35:00
8:55 PM,52.7,43.2,70,30.17,10.0,Calm,Calm,-,N/A,,Overcast,0,2013-05-18 00:55:00
9:15 PM,53.1,41.9,66,30.17,10.0,Calm,Calm,-,N/A,,Overcast,0,2013-05-18 01:15:00
9:35 PM,52.2,43.3,72,30.19,10.0,Calm,Calm,-,N/A,,Overcast,0,2013-05-18 01:35:00
9:55 PM,51.6,43.5,74,30.20,10.0,Calm,Calm,-,N/A,,Overcast,0,2013-05-18 01:55:00
10:15 PM,49.6,42.8,77,30.21,10.0,Calm,Calm,-,N/A,,Mostly Cloudy,0,2013-05-18 02:15:00
10:35 PM,48.0,42.4,81,30.21,10.0,Calm,Calm,-,N/A,,Mostly Cloudy,0,2013-05-18 02:35:00
10:55 PM,47.1,42.8,85,30.21,10.0,Calm,Calm,-,N/A,,Overcast,0,2013-05-18 02:55:00
11:15 PM,46.2,42.4,87,30.22,10.0,Calm,Calm,-,N/A,,Overcast,0,2013-05-18 03:15:00
11:35 PM,46.0,43.2,90,30.22,10.0,Calm,Calm,-,N/A,,Overcast,0,2013-05-18 03:35:00
11:55 PM,45.3,42.8,91,30.23,10.0,Calm,Calm,-,N/A,,Overcast,0,2013-05-18 03:55:00